This demonstration page uses our WeatherBlox Daily Observations layout. Learn more.

Left ArrowRight Arrow

39.01783, -85.05884

Hourly Observations for December 17, 2017

Temp ( °F °C ) Dew Point ( °F °C ) Humidity (%) Winds ( mph kmh ) Pressure ( in mb ) Visibility ( mi km ) Precip ( " mm )
12:52 am 00:52 Mostly Clear 38 3.3 30 -1.1 73 73 SSW 7 11 30.17 1022 10 16 0.00 0.00
1:52 am 01:52 Mostly Cloudy 37 2.8 30 -1.1 76 76 SSW 8 13 30.16 1022 10 16 0.00 0.00
2:52 am 02:52 Cloudy 38 3.3 30 -1.1 73 73 SSW 9 15 30.16 1021 10 16 0.00 0.00
3:52 am 03:52 Cloudy 38 3.3 30 -1.1 73 73 SSW 9 15 30.18 1022 10 16 0.00 0.00
4:52 am 04:52 Cloudy 39 3.9 30 -1.1 70 70 SSW 8 13 30.16 1021 10 16 0.00 0.00
5:52 am 05:52 Cloudy 39 3.9 30 -1.1 70 70 SSW 8 13 30.16 1022 10 16 0.00 0.00
6:52 am 06:52 Cloudy 37 2.8 30 -1.1 76 76 S 5 7 30.16 1021 10 16 0.00 0.00
7:52 am 07:52 Cloudy 38 3.3 31 -0.6 76 76 SSW 9 15 30.19 1022 10 16 0.00 0.00
8:52 am 08:52 Cloudy 39 3.9 31 -0.6 73 73 S 8 13 30.19 1022 10 16 0.00 0.00
9:52 am 09:52 Cloudy 40 4.4 32 0 73 73 S 8 13 30.16 1021 10 16 0.00 0.00
10:52 am 10:52 Cloudy 42 5.6 32 0 68 68 S 10 17 30.16 1021 10 16 0.00 0.00
11:52 am 11:52 Cloudy 43 6.1 32 0 65 65 SSE 7 11 30.10 1019 10 16 0.00 0.00
12:52 pm 12:52 Cloudy 44 6.7 33 0.6 65 65 SW 8 13 30.14 1021 10 16 0.00 0.00
1:52 pm 13:52 Cloudy 46 7.8 33 0.6 61 61 SSW 7 11 30.12 1020 10 16 0.00 0.00
2:52 pm 14:52 Cloudy 45 7.2 33 0.6 63 63 SSW 5 7 30.09 1019 10 16 0.00 0.00
3:52 pm 15:52 Cloudy 45 7.2 33 0.6 63 63 SSW 5 7 30.10 1019 10 16 0.00 0.00
4:52 pm 16:52 Cloudy 45 7.2 34 1.1 66 66 S 6 9 30.09 1019 10 16 0.00 0.00
5:52 pm 17:52 Cloudy 43 6.1 34 1.1 71 71 S 6 9 30.10 1019 10 16 0.00 0.00
6:52 pm 18:52 Cloudy 44 6.7 33 0.6 65 65 S 7 11 30.09 1019 10 16 0.00 0.00
7:52 pm 19:52 Cloudy 43 6.1 34 1.1 71 71 S 10 17 30.10 1019 10 16 0.00 0.00
8:52 pm 20:52 Cloudy 43 6.1 35 1.7 74 74 SSW 9 15 30.13 1020 10 16 0.00 0.00
9:52 pm 21:52 Cloudy 42 5.6 37 2.8 82 82 SSW 8 13 30.13 1020 10 16 0.00 0.00
10:43 pm 22:43 Cloudy 41 5 39 3.9 93 93 SSW 9 15 30.15 1021 10 16 0.00 0.00
10:52 pm 22:52 Cloudy 41 5 39 3.9 93 93 SSW 7 11 30.12 1020 10 16 0.00 0.00
11:17 pm 23:17 Cloudy 41 5 39 3.9 93 93 SSW 8 13 30.15 1021 10 16 0.00 0.00
11:52 pm 23:52 Cloudy 41 5 39 3.9 93 93 SSW 8 13 30.11 1020 9 14 0.00 0.00

Powered by AerisWeather